{"data":{"norad_id":66798,"epoch":"2026-05-25T02:37:01.881120Z","epoch_age_seconds":61661,"freshness":"FRESH","line1":"1 66798U 25278H   26145.10904955  .00012680  00000+0  46918-3 0  9998","line2":"2 66798  43.0054  43.0350 0001565 252.9731 107.0949 15.27604656 26892","mean_motion":15.27604656,"eccentricity":0.0001565,"inclination_deg":43.0054,"raan_deg":43.035,"arg_perigee_deg":252.9731,"mean_anomaly_deg":107.0949,"bstar":0.00046918,"rev_number":2689,"period_min":94.265227219889,"perigee_km":481.90150402877,"apogee_km":484.04903216868,"semimajor_km":6861.1122680987,"source":"CELESTRAK","updated_at":"2026-05-25T13:38:21.327761Z"}}